Temp
83 72 68 73 76 79 75 72 65 72 83 77 73 73 76 80 79 76 76 76 76 77 80 81 81 82 82 80 77 77 77 76 76 73 73 72 73 75 77 78 80 81 81 82
76 72 82 87 82 81 77 71 67 74 83 76 72 75 79 81 80 80 78 78 79 79 79 79 81 82 82 80 80 77 77 77 76 75 74 75 74 76 77 77 79 81 81 81
73 79 90 87 86 79 77 72 71 73 79 81 77 71 76 82 84 83 83 82 83 81 78 79 80 81 82 80 77 79 77 76 76 76 75 75 75 75 74 75 77 78 80 81
78 87 86 84 84 80 71 84 82 80 74 64 81 57 71 78 78 82 81 82 83 83 82 81 80 80 82 82 81 79 78 77 76 76 74 73 72 71 73 75 77 79 79 81
76 81 82 81 84 87 81 88 87 83 73 69 74 66 68 77 73 78 81 83 85 84 84 82 82 82 83 84 82 80 78 77 76 77 77 75 72 74 75 76 77 77 79 81
81 90 87 85 91 92 92 85 83 76 69 58 69 66 67 73 76 80 84 86 87 85 85 84 85 84 83 85 84 81 77 77 78 76 77 74 73 74 74 74 74 76 78 79
79 82 88 92 83 88 83 72 58 55 56 56 69 66 67 81 85 86 84 86 88 88 85 83 83 82 83 84 83 82 78 77 78 78 76 77 75 75 74 74 74 75 76 76
66 66 82 90 83 77 76 72 59 52 53 62 70 63 72 88 90 91 90 90 90 89 88 86 85 84 84 85 84 83 79 77 78 78 77 75 75 75 74 75 74 74 75 75
67 68 87 90 90 85 74 72 76 63 62 62 70 73 81 89 88 90 89 90 88 90 89 87 87 85 84 85 84 83 79 78 78 78 76 75 75 75 74 75 75 75 76 78
73 63 81 88 89 88 79 80 66 62 52 50 67 68 66 75 82 87 88 88 89 90 91 89 88 86 86 87 85 84 81 78 78 78 77 76 75 75 75 75 76 77 76 76
80 67 74 84 79 75 73 72 67 67 63 55 54 65 84 79 81 84 88 90 90 90 91 91 90 89 87 88 87 85 80 79 78 78 78 76 77 76 77 77 77 77 75 75
82 69 66 74 82 87 79 74 70 58 59 60 61 63 88 86 85 86 86 91 91 93 93 92 92 90 88 87 88 87 81 80 80 80 79 79 79 79 77 77 76 75 74 77
82 73 61 65 77 78 78 77 72 69 64 60 58 63 85 85 84 85 85 86 91 92 92 92 91 89 88 88 87 87 83 81 81 80 80 80 79 77 76 76 76 78 77 74
82 73 65 64 67 76 73 79 78 72 61 61 64 72 77 78 82 83 85 85 86 90 88 91 87 88 88 88 86 85 83 82 82 82 81 79 75 76 78 78 76 73 72 71
80 70 73 72 79 80 80 80 80 72 75 64 73 72 77 79 83 84 85 85 86 84 82 86 84 86 79 80 84 84 83 82 83 81 78 75 75 75 74 72 72 70 70 70
83 68 73 70 78 81 79 82 82 81 80 77 80 74 82 89 87 84 84 84 83 82 82 80 80 81 81 80 82 83 80 81 81 76 74 74 74 72 71 70 69 69 69 67
78 73 65 64 74 74 66 78 81 81 80 83 73 76 86 83 85 81 81 84 84 83 83 81 80 79 79 79 81 79 80 77 76 74 73 73 72 71 68 69 68 67 67 64
73 69 67 66 59 54 69 81 87 83 84 82 81 81 85 86 90 85 88 84 84 84 83 81 81 79 79 80 79 77 77 75 74 73 72 71 70 69 68 67 66 66 64 62
79 73 58 61 62 64 74 79 76 75 77 85 80 82 86 89 88 78 86 86 85 84 85 83 82 81 80 80 78 75 73 73 73 72 71 70 69 68 66 65 64 65 63 62
72 77 67 58 59 57 68 81 86 81 65 84 84 82 82 82 72 75 83 85 84 82 83 81 81 81 80 77 76 74 72 72 72 70 69 69 68 66 64 64 64 64 63 62
61 66 64 58 57 63 77 84 86 61 65 83 84 82 80 75 75 82 82 81 82 83 81 82 81 80 77 76 76 73 73 73 72 70 68 67 65 64 64 64 63 61 62 61
60 59 57 58 56 56 81 83 72 74 78 84 83 82 82 83 82 80 79 79 80 79 79 81 79 75 76 77 75 72 70 70 70 68 66 65 64 67 65 62 61 61 60 59
61 65 63 65 63 72 78 76 79 80 79 80 84 85 82 82 82 78 77 78 79 80 79 79 76 74 75 75 75 72 67 69 68 66 64 63 63 63 62 61 59 59 59 56
68 71 64 66 70 77 77 80 81 83 80 83 85 87 87 82 80 78 79 79 79 79 77 75 74 72 72 73 73 70 68 68 67 64 62 62 62 60 61 59 57 54 54 53
69 70 66 66 70 73 77 78 80 85 85 85 86 86 85 84 79 80 78 78 78 77 75 75 72 71 70 70 70 70 68 68 65 64 63 62 59 54 54 51 50 51 46 52
70 68 64 61 71 70 72 77 83 83 82 84 84 84 86 82 78 80 78 79 78 76 74 72 71 70 67 68 69 69 67 68 65 63 63 62 60 55 54 52 47 49 48 48
MSLP
1002.23 1002.94 1002.91 1003.75 1003.97 1004.53 1006.29 1006.73 1006.72 1005.19 1006.04 1005.50 1005.86 1006.83 1007.75 1008.25 1008.92 1009.87 1010.68 1011.42 1012.04 1012.33 1013.03 1013.67 1014.12 1014.52 1014.99 1015.27 1015.85 1016.34 1016.57 1016.86 1017.27 1017.69 1018.09 1018.22 1018.36 1018.05 1017.95 1017.93 1017.82 1017.53 1017.37 1017.31
1002.46 1002.22 1002.03 1002.25 1003.24 1003.16 1005.58 1006.79 1006.05 1005.42 1004.66 1005.40 1005.02 1006.14 1006.76 1007.11 1007.55 1008.20 1009.14 1010.15 1010.78 1011.55 1012.44 1012.93 1013.51 1014.01 1014.41 1014.91 1015.37 1015.92 1016.21 1016.46 1016.93 1017.33 1017.55 1017.68 1017.82 1017.81 1017.84 1017.71 1017.49 1017.07 1016.89 1017.00
1001.87 1001.48 1001.29 1001.35 1001.75 1003.26 1004.54 1004.90 1004.82 1004.22 1003.25 1003.75 1004.33 1006.10 1006.26 1006.16 1006.47 1007.27 1007.99 1008.66 1009.35 1010.22 1011.30 1012.12 1012.79 1013.20 1013.69 1014.24 1014.75 1015.28 1015.72 1016.10 1016.48 1016.90 1017.14 1017.40 1017.57 1017.48 1017.66 1017.60 1017.38 1016.73 1016.66 1016.90
1001.22 1000.82 1000.46 1000.32 1000.66 1001.04 1002.79 1003.00 1002.26 1002.51 1003.17 1002.62 1003.17 1005.48 1005.81 1005.44 1005.63 1006.37 1007.13 1007.82 1008.41 1009.23 1010.24 1011.25 1012.09 1012.65 1013.06 1013.48 1014.09 1014.77 1015.29 1015.69 1016.10 1016.52 1016.89 1017.35 1017.58 1017.70 1017.59 1017.52 1017.32 1016.80 1016.32 1016.49
1000.17 999.92 999.66 999.42 999.04 999.45 1000.08 1000.80 1000.23 1000.58 1001.65 1002.13 1002.46 1003.77 1004.43 1004.77 1005.08 1005.34 1006.02 1006.64 1007.27 1008.16 1009.13 1010.11 1010.90 1011.67 1012.35 1012.94 1013.47 1014.04 1014.66 1015.17 1015.61 1016.16 1016.47 1016.95 1017.28 1017.31 1017.25 1017.34 1017.18 1016.65 1016.29 1016.02
999.83 999.14 998.83 998.54 998.05 998.04 998.45 999.45 1000.01 1000.51 1001.65 1002.37 1002.08 1002.50 1003.30 1003.33 1003.23 1003.91 1004.61 1005.29 1006.11 1007.28 1008.29 1009.16 1010.01 1010.92 1011.57 1012.16 1012.85 1013.49 1014.20 1014.64 1015.09 1015.56 1016.01 1016.47 1016.83 1017.08 1017.18 1017.18 1017.23 1016.76 1016.35 1016.18
999.46 998.81 998.07 997.78 997.88 997.57 998.07 999.52 1000.91 1002.03 1002.78 1002.49 1001.22 1001.63 1000.90 1001.21 1001.30 1001.95 1003.07 1004.09 1004.93 1006.02 1007.33 1008.41 1009.32 1010.10 1010.81 1011.36 1012.01 1012.78 1013.48 1014.00 1014.43 1015.06 1015.59 1015.93 1016.29 1016.55 1016.70 1016.83 1017.04 1017.01 1016.71 1016.51
999.20 998.62 997.39 996.86 997.34 997.66 998.31 999.45 1000.69 1002.07 1002.71 1001.97 1000.88 1000.29 999.21 999.04 999.67 1000.41 1001.29 1002.44 1003.80 1004.92 1006.06 1007.23 1008.16 1009.02 1009.80 1010.53 1011.17 1011.87 1012.66 1013.42 1013.88 1014.41 1014.99 1015.39 1015.69 1015.89 1016.10 1016.41 1016.66 1016.83 1016.72 1016.63
998.60 997.94 997.15 996.70 996.68 997.17 997.98 998.88 999.80 1001.26 1001.68 1002.17 1000.56 999.42 998.35 998.46 999.11 999.72 1000.76 1001.76 1002.78 1003.82 1004.83 1005.97 1007.06 1007.89 1008.80 1009.61 1010.20 1010.93 1011.88 1012.66 1013.24 1013.81 1014.47 1014.87 1015.12 1015.43 1015.76 1016.01 1016.18 1016.30 1016.45 1016.55
997.92 998.28 997.12 996.54 996.57 996.44 997.22 998.44 999.73 1000.95 1002.29 1002.46 1001.25 1000.28 998.93 998.86 998.87 999.28 1000.00 1000.83 1001.72 1002.59 1003.56 1004.64 1005.82 1006.84 1007.85 1008.60 1009.48 1010.37 1011.15 1011.88 1012.59 1013.29 1013.84 1014.28 1014.63 1015.01 1015.38 1015.66 1015.78 1015.89 1015.98 1016.06
997.42 997.80 997.15 996.76 996.01 996.67 997.18 998.14 999.46 1000.54 1001.67 1002.36 1001.80 1000.54 998.57 998.20 998.12 998.60 999.10 999.78 1000.68 1001.61 1002.40 1003.33 1004.41 1005.57 1006.68 1007.64 1008.58 1009.49 1010.49 1011.36 1012.12 1012.69 1013.20 1013.71 1014.14 1014.53 1014.84 1015.05 1015.17 1015.37 1015.65 1015.96
996.11 996.86 997.34 996.20 995.79 996.10 996.70 997.93 999.30 1001.07 1001.61 1001.76 1001.20 999.76 997.54 998.12 997.63 997.63 998.13 999.04 999.73 1000.41 1001.38 1002.43 1003.33 1004.56 1005.73 1006.55 1007.48 1008.29 1009.48 1010.52 1011.18 1011.73 1012.42 1013.01 1013.47 1013.79 1014.16 1014.57 1014.94 1015.21 1015.60 1015.72
995.41 996.43 997.16 996.72 996.07 995.66 996.15 997.45 998.42 999.59 1000.52 1000.87 1001.06 999.10 996.37 997.05 997.21 997.31 997.80 998.65 999.29 999.99 1000.85 1001.80 1002.87 1003.84 1004.80 1005.79 1006.63 1007.48 1008.52 1009.42 1010.18 1010.90 1011.69 1012.31 1012.74 1013.25 1013.85 1014.37 1014.72 1015.06 1015.35 1015.76
994.86 995.77 996.32 996.21 995.56 995.69 996.22 996.89 997.59 998.65 999.90 1000.00 999.69 998.99 997.50 997.00 997.15 997.52 997.76 998.18 999.06 999.80 1000.42 1001.35 1002.53 1003.15 1003.96 1004.93 1005.81 1006.80 1007.75 1008.56 1009.48 1010.36 1011.17 1011.79 1012.44 1013.07 1013.56 1014.07 1014.56 1014.94 1015.37 1015.82
994.14 994.88 995.68 995.62 995.31 995.11 995.22 995.99 996.69 997.46 998.11 999.08 998.25 998.40 997.36 997.07 997.19 997.38 997.83 998.36 999.12 1000.07 1000.68 1001.25 1002.16 1003.03 1003.96 1004.85 1005.60 1006.35 1007.25 1008.17 1009.16 1010.20 1010.98 1011.80 1012.48 1013.18 1013.83 1014.31 1014.83 1015.26 1015.74 1016.28
993.23 994.45 995.36 995.73 995.30 994.70 994.52 994.57 995.37 996.13 996.59 997.20 996.98 996.95 996.02 995.94 996.69 997.17 997.70 998.56 999.42 999.96 1000.61 1001.30 1002.24 1003.11 1003.94 1004.69 1005.47 1006.26 1007.24 1008.16 1009.02 1010.15 1011.19 1012.04 1012.81 1013.54 1014.22 1014.76 1015.35 1015.88 1016.54 1016.91
992.52 993.98 995.12 995.66 995.35 995.20 994.76 993.86 994.01 994.80 995.16 995.65 995.93 995.92 995.72 996.12 996.60 997.07 997.75 998.33 999.16 999.98 1000.79 1001.62 1002.43 1003.26 1004.03 1004.79 1005.49 1006.35 1007.27 1008.30 1009.37 1010.45 1011.55 1012.44 1013.15 1013.98 1014.53 1015.15 1015.80 1016.51 1017.01 1017.58
991.81 993.52 994.82 995.69 995.79 995.23 993.75 992.96 993.09 993.63 994.15 994.34 994.69 994.85 995.43 995.32 996.34 996.48 996.84 997.76 998.70 999.55 1000.64 1001.58 1002.48 1003.46 1004.08 1004.86 1005.90 1006.89 1007.92 1008.83 1009.77 1010.86 1011.79 1012.57 1013.39 1014.19 1014.90 1015.63 1016.30 1016.78 1017.24 1017.66
990.93 992.68 994.35 995.33 995.34 994.73 993.65 993.01 993.15 993.38 993.58 993.51 994.03 994.10 994.73 995.14 995.57 996.50 996.27 997.01 997.94 998.89 999.80 1000.64 1001.62 1002.77 1003.97 1004.97 1006.11 1007.30 1008.60 1009.57 1010.45 1011.32 1012.10 1012.86 1013.60 1014.50 1015.38 1016.14 1016.72 1017.07 1017.42 1017.76
991.07 991.64 993.76 994.91 995.35 993.95 993.42 992.65 992.67 993.00 993.24 992.96 993.25 993.61 994.17 994.92 996.51 996.35 996.63 996.66 997.59 998.70 999.52 1000.66 1002.01 1003.18 1004.15 1005.27 1006.22 1007.48 1008.88 1009.85 1010.79 1011.65 1012.46 1013.11 1013.97 1015.01 1015.84 1016.42 1016.86 1017.18 1017.42 1017.76
991.81 992.51 993.36 994.51 994.80 993.69 992.55 992.41 992.77 993.49 993.72 992.25 992.70 993.25 993.56 994.95 996.05 995.67 996.07 996.97 997.38 998.35 999.73 1000.75 1001.95 1003.12 1004.28 1005.36 1006.35 1007.74 1008.81 1009.93 1010.82 1011.78 1012.73 1013.69 1014.58 1015.39 1015.98 1016.51 1016.97 1017.43 1017.73 1018.00
992.19 992.85 993.55 994.02 994.27 993.67 992.24 992.25 992.66 993.16 992.58 992.07 992.45 992.89 993.56 994.19 995.36 996.30 996.81 997.63 998.27 999.30 1000.29 1001.16 1002.43 1003.91 1004.92 1005.85 1006.77 1008.12 1009.23 1009.86 1010.93 1012.10 1013.26 1014.27 1014.94 1015.53 1016.14 1016.76 1017.35 1017.69 1017.91 1018.26
992.52 992.54 993.00 993.10 993.24 992.63 992.45 992.37 992.12 991.95 992.24 991.64 991.92 992.54 993.26 993.98 995.15 996.22 997.48 998.21 998.83 999.49 1000.66 1001.54 1002.77 1004.44 1005.53 1006.35 1007.07 1008.38 1009.67 1010.26 1011.40 1012.55 1013.70 1014.66 1015.27 1015.89 1016.54 1017.27 1017.80 1017.95 1018.11 1018.58
992.23 992.05 993.05 993.02 992.74 992.85 992.44 992.31 992.12 991.72 991.36 990.92 991.30 991.95 992.81 993.97 995.15 996.32 997.39 998.39 999.25 1000.11 1001.10 1002.39 1003.35 1004.73 1005.87 1006.73 1007.65 1008.41 1009.81 1010.66 1011.71 1012.91 1013.95 1014.80 1015.43 1016.20 1016.75 1017.42 1018.06 1018.48 1018.53 1018.80
993.30 992.57 992.91 993.44 993.08 992.91 992.59 992.53 992.36 992.04 991.57 991.69 991.58 992.08 992.96 993.74 994.95 996.23 997.40 998.32 999.41 1000.38 1001.78 1002.83 1003.87 1005.04 1005.98 1006.90 1007.94 1008.97 1010.00 1010.83 1012.06 1013.09 1014.06 1014.94 1015.73 1016.50 1017.32 1018.09 1018.31 1018.39 1018.66 1018.50
994.22 992.93 993.07 993.33 993.31 993.15 992.83 992.61 992.66 992.33 992.08 991.91 992.11 992.51 993.06 993.71 995.03 996.31 997.75 998.48 999.29 1000.55 1001.95 1003.18 1004.39 1005.46 1006.51 1007.11 1008.25 1009.28 1010.18 1010.88 1011.99 1013.23 1014.17 1015.02 1015.98 1016.89 1017.52 1018.03 1018.78 1018.91 1018.84 1018.82
Wind_Speed
9 4 8 7 9 10 7 11 10 16 9 9 7 20 19 20 18 18 18 16 16 17 17 13 15 14 12 8 8 8 9 8 7 3 3 2 3 4 4 4 5 3 3 2
7 13 14 12 20 15 18 18 23 23 19 8 10 16 19 19 20 21 21 18 18 17 17 17 17 17 15 14 12 11 9 8 6 4 3 3 3 3 2 2 4 4 4 3
12 12 16 19 13 16 15 23 24 20 17 20 13 9 15 13 13 18 19 19 15 17 22 20 17 16 13 13 10 13 11 9 7 6 3 2 2 2 2 2 4 6 5 4
12 17 18 19 16 25 18 20 25 26 15 5 19 7 11 14 12 18 19 17 16 17 19 18 18 17 16 14 12 13 11 11 8 9 5 6 4 4 4 3 4 6 6 7
15 15 21 18 21 18 16 36 15 5 8 4 7 9 8 13 11 16 20 18 17 19 19 18 19 20 18 15 14 14 13 11 9 9 9 7 5 4 3 3 5 4 4 6
14 11 16 19 19 12 10 12 6 4 2 3 9 8 13 17 15 17 21 19 19 20 19 19 17 13 13 12 15 14 13 12 12 11 11 8 8 7 4 3 1 4 3 3
15 22 20 21 13 13 5 6 2 4 3 8 8 6 10 20 20 20 24 21 21 21 19 19 19 17 15 15 14 15 16 16 14 12 10 12 9 7 6 6 3 2 3 2
12 16 25 15 15 11 9 8 7 6 6 10 1 6 7 20 22 22 24 24 22 22 20 21 21 19 18 16 16 16 15 14 14 13 11 8 9 6 5 4 2 3 3 1
13 11 15 20 15 9 8 10 10 4 4 1 4 2 6 20 17 21 22 22 25 22 21 22 21 20 19 17 17 17 16 14 14 12 9 7 7 7 5 6 4 4 4 3
11 7 15 19 14 13 10 7 5 3 1 1 6 4 7 9 17 19 24 24 24 23 23 22 21 19 18 16 14 13 16 16 13 11 9 8 7 7 6 4 4 3 0 5
20 5 13 17 18 13 5 7 3 6 7 5 2 5 13 11 12 19 20 24 23 24 23 22 22 20 20 18 16 15 16 15 12 12 10 9 8 7 7 7 6 3 6 5
26 6 12 19 7 11 10 9 8 7 8 4 5 8 9 10 14 12 12 21 23 23 22 22 21 21 20 20 18 18 16 16 15 14 12 11 10 10 9 6 6 7 6 5
24 15 9 9 14 7 14 9 7 5 3 7 5 9 2 12 9 9 11 13 20 21 20 20 18 20 20 19 17 18 15 17 16 14 13 12 11 8 7 9 8 7 6 6
21 13 12 13 9 10 14 17 11 10 5 5 7 8 2 4 10 8 9 9 14 17 15 19 14 20 19 19 17 16 15 16 16 14 12 10 10 11 11 10 8 7 7 7
16 19 18 9 13 10 22 21 18 12 15 8 14 9 8 8 10 10 10 9 10 10 10 16 16 16 10 12 14 14 13 15 15 14 10 12 11 10 8 8 7 7 8 7
21 13 16 15 13 15 22 25 22 19 17 13 18 5 9 16 7 9 12 11 10 10 12 11 12 13 13 13 13 14 13 14 13 12 13 12 11 10 7 7 7 8 7 7
20 14 10 19 14 12 9 21 22 17 11 20 14 9 8 4 5 9 9 12 12 14 15 15 13 12 12 11 13 15 15 14 14 14 13 11 10 9 8 8 8 7 6 7
16 15 10 13 4 10 8 6 19 20 14 9 8 5 8 11 18 12 14 13 12 14 14 14 14 12 12 13 13 13 13 14 14 13 13 10 9 10 8 8 7 6 5 7
12 14 5 10 11 5 7 9 3 9 15 13 8 7 7 7 8 1 12 12 14 15 17 17 16 17 15 15 15 16 13 13 13 12 11 10 10 10 8 7 7 5 5 5
2 16 9 5 14 18 9 10 7 5 6 11 10 11 8 6 5 6 8 11 10 11 15 16 15 15 15 14 17 16 14 13 12 10 9 10 9 8 8 7 6 3 4 5
4 9 14 6 4 3 5 12 7 2 12 6 8 6 5 7 8 4 7 6 9 17 17 16 17 15 14 17 17 16 14 13 11 11 10 9 9 8 7 6 3 4 5 6
5 8 5 5 5 6 1 8 11 10 8 7 6 6 7 8 10 10 10 12 16 17 17 17 15 14 14 15 15 14 12 12 14 13 13 11 8 7 6 7 4 5 6 6
0 7 7 10 8 5 4 4 3 3 9 6 9 8 8 8 9 11 13 15 16 20 17 16 18 16 13 13 15 15 11 15 15 14 11 9 7 7 6 6 5 3 2 4
1 4 4 7 4 7 6 5 6 4 5 6 8 8 7 8 6 14 16 16 16 16 16 16 19 18 15 13 13 17 15 15 15 13 10 9 9 7 6 4 5 5 4 5
6 6 3 3 7 4 5 5 4 9 7 10 7 8 8 9 8 17 15 16 16 15 16 16 17 16 15 16 17 16 15 16 14 12 10 9 7 7 7 5 4 5 2 4
6 4 6 5 5 5 5 5 8 6 2 4 4 7 8 8 12 15 13 15 17 17 18 15 16 16 15 18 17 16 14 15 15 12 9 8 8 6 6 6 5 10 6 9
Wind_Direction
231 204 230 173 153 166 210 336 302 285 158 230 142 151 172 174 164 167 172 179 185 192 182 175 180 182 194 186 177 188 171 171 165 155 184 223 232 251 268 317 280 199 175 240
233 223 234 234 183 165 163 179 244 268 266 231 157 170 180 181 174 172 171 179 185 188 168 183 186 197 187 190 197 183 177 177 167 166 193 187 202 242 200 289 303 236 215 222
212 231 224 244 214 143 180 201 225 234 261 220 129 163 178 199 167 169 171 177 182 168 173 181 184 186 187 186 176 181 179 172 177 179 186 242 274 310 347 308 295 284 226 221
229 231 235 231 229 175 176 224 237 233 224 205 152 176 192 194 166 169 167 177 180 170 171 174 184 188 192 194 184 178 180 179 178 184 189 199 214 219 236 239 258 285 220 215
225 204 233 237 237 193 204 195 225 153 185 172 215 110 202 181 167 170 170 177 174 168 172 171 178 186 191 193 186 179 182 181 180 190 195 207 222 221 232 244 274 287 235 212
230 231 229 233 246 236 211 218 273 164 131 12 222 140 172 181 178 175 169 174 166 168 172 173 179 174 182 175 177 182 183 192 193 188 201 199 213 232 248 247 232 303 287 290
226 235 241 236 250 257 205 121 3 9 344 226 245 146 191 189 176 172 170 176 170 169 168 173 177 181 186 188 179 181 184 194 194 198 191 205 216 221 229 229 217 250 301 354
206 224 229 239 223 213 208 181 163 175 210 244 225 204 231 176 172 175 169 172 168 170 170 176 180 181 186 187 185 183 185 187 190 192 201 187 199 217 226 228 218 219 235 180
210 226 232 235 243 203 239 209 220 222 255 4 264 9 56 159 169 169 167 166 170 173 172 177 180 182 183 187 187 184 181 188 189 189 184 193 190 200 216 232 236 230 253 244
236 203 226 238 238 243 160 197 261 341 122 292 278 8 198 167 172 166 168 173 174 175 176 175 179 180 181 185 181 178 178 184 184 183 183 192 190 189 205 225 250 250 322 77
233 200 220 229 221 205 195 232 268 169 143 178 226 195 244 184 174 168 176 173 174 178 179 177 178 177 178 181 180 178 176 179 180 182 184 182 187 191 196 208 219 172 114 112
223 187 232 220 224 203 174 202 190 131 273 218 148 267 262 194 175 163 169 173 177 177 177 177 174 174 176 180 180 183 172 176 180 182 182 186 184 192 197 190 141 129 143 149
212 225 245 261 214 208 192 213 214 186 151 221 151 266 279 159 162 171 161 153 174 177 173 177 172 172 178 179 180 181 173 178 178 177 180 184 185 176 144 134 131 139 138 131
197 220 195 228 217 195 191 206 211 208 197 235 215 249 100 117 136 130 141 142 162 177 168 172 169 175 176 177 176 174 177 172 173 172 173 166 135 139 143 139 139 131 112 101
190 218 226 240 255 219 182 199 213 214 227 169 241 179 210 160 147 148 154 137 126 126 127 162 162 171 162 157 165 165 160 156 157 159 140 133 133 132 131 124 127 101 92 87
197 207 218 243 250 262 199 190 201 219 220 227 246 216 219 165 175 164 158 146 151 132 130 121 124 135 137 138 144 144 137 142 140 127 130 132 129 126 134 107 97 89 90 85
192 190 192 230 233 256 260 203 194 211 226 216 227 208 196 143 138 170 152 152 160 143 140 137 135 131 129 125 130 134 135 125 125 127 129 129 129 127 102 105 101 109 111 102
182 182 186 216 199 237 238 204 197 199 218 233 223 212 165 173 208 169 170 157 163 144 141 139 137 135 132 127 122 117 124 125 128 129 128 128 119 111 110 114 124 126 120 126
181 173 154 179 220 233 247 268 196 181 223 214 214 224 163 184 144 321 165 163 164 156 161 159 153 146 137 134 128 124 122 123 125 129 128 119 118 114 116 120 125 128 124 131
205 163 150 129 205 222 231 247 258 295 229 222 202 229 213 139 119 230 173 155 158 137 144 139 139 137 131 133 129 126 127 129 129 125 116 111 107 112 116 122 123 137 132 134
135 179 181 133 172 229 177 234 272 262 238 125 168 157 114 126 177 178 150 100 141 146 139 133 136 140 134 132 130 129 133 134 122 109 106 100 106 113 120 118 113 125 121 112
147 155 164 117 133 229 145 260 196 218 246 143 144 164 144 140 115 111 108 126 124 125 126 127 123 122 127 131 126 127 126 119 113 109 107 111 110 119 115 121 114 138 145 146
97 146 173 170 194 219 161 182 269 216 199 197 135 124 176 169 135 132 131 130 132 135 133 125 125 124 126 131 133 123 125 118 116 116 119 120 115 116 121 129 153 157 155 141
106 88 108 65 193 200 296 338 347 347 11 161 138 132 112 106 139 141 133 134 133 136 130 129 129 132 132 132 123 123 126 123 123 124 122 125 126 129 133 93 93 102 94 104
254 110 145 132 320 17 360 339 332 328 62 55 59 98 104 96 111 145 144 142 140 135 130 138 136 138 135 127 127 129 129 130 129 126 129 132 107 106 99 81 117 115 93 156
336 254 148 198 212 159 252 285 295 307 182 93 102 98 87 103 133 136 141 145 143 139 140 135 137 135 133 131 132 135 137 137 136 138 144 134 128 123 126 117 80 43 61 70